G4CVN Weather Reports


Display with metric or nautical units.
time (UTC)temp
F
wind
direction
speed
MPH
gust
MPH
rain 1hr
in
rain 24hr
in
rain mn
in
humidity
%
barometer
mb
20260905201016 59 0.0 0.0 0.00 0.00 0.00 81 1029.4
20260905200017 60 0.0 0.0 0.00 0.00 0.00 80 1029.3
20260905195036 60 0.0 1.0 0.00 0.00 0.00 79 1029.3
20260905194017 61 0.0 1.0 0.00 0.00 0.00 77 1029.2
20260905193058 62 0.0 1.0 0.00 0.00 0.00 75 1029.2
20260905192016 62 0.0 1.0 0.00 0.00 0.00 74 1029.2
20260905191018 63 0.0 1.0 0.00 0.00 0.00 73 1029.0
20260905190016 64 0.0 2.0 0.00 0.00 0.00 72 1028.8
20260905185017 64 225 1.0 2.0 0.00 0.00 0.00 70 1028.7
20260905184017 65 225 1.0 2.0 0.00 0.00 0.00 69 1028.8
20260905183016 66 203 1.0 3.0 0.00 0.00 0.00 68 1028.8
20260905182016 67 203 1.0 4.0 0.00 0.00 0.00 67 1028.8
20260905181017 67 203 2.0 4.0 0.00 0.00 0.00 66 1028.7
20260905180036 67 225 2.0 5.0 0.00 0.00 0.00 66 1028.8
20260905175016 67 203 2.0 4.0 0.00 0.00 0.00 66 1028.7
20260905174017 67 225 2.0 3.0 0.00 0.00 0.00 65 1028.7
20260905173016 67 203 2.0 5.0 0.00 0.00 0.00 65 1028.5
20260905172036 68 203 3.0 6.0 0.00 0.00 0.00 65 1028.5
20260905171016 68 225 3.0 5.0 0.00 0.00 0.00 64 1028.6
20260905170016 69 248 2.0 6.0 0.00 0.00 0.00 63 1028.5
20260905165016 69 225 2.0 4.0 0.00 0.00 0.00 62 1028.5
20260905164016 69 225 3.0 7.0 0.00 0.00 0.00 61 1028.4
20260905163037 70 203 3.0 7.0 0.00 0.00 0.00 60 1028.4
20260905162037 70 203 3.0 7.0 0.00 0.00 0.00 59 1028.4
20260905161016 71 225 3.0 6.0 0.00 0.00 0.00 57 1028.5
20260905160016 72 225 3.0 8.0 0.00 0.00 0.00 56 1028.5
20260905155016 73 225 3.0 6.0 0.00 0.00 0.00 55 1028.6
20260905154017 74 225 3.0 10.0 0.00 0.00 0.00 54 1028.5
20260905153016 74 225 3.0 5.0 0.00 0.00 0.00 53 1028.6
20260905152016 76 180 3.0 5.0 0.00 0.00 0.00 51 1028.6
20260905151016 77 225 2.0 5.0 0.00 0.00 0.00 48 1028.6
20260905150016 76 0.0 5.0 0.00 0.00 0.00 46 1028.7
20260905145016 76 0.0 0.0 0.00 0.00 0.00 45 1028.7
20260905144017 77 0.0 0.0 0.00 0.00 0.00 44 1028.7
20260905143016 76 0.0 0.0 0.00 0.00 0.00 47 1028.6
20260905142016 76 0.0 0.0 0.00 0.00 0.00 44 1028.7
20260905141016 77 0.0 0.0 0.00 0.00 0.00 45 1028.7
20260905140016 77 0.0 0.0 0.00 0.00 0.00 44 1028.5
20260905135016 77 0.0 0.0 0.00 0.00 0.00 44 1028.5
20260905134016 77 0.0 0.0 0.00 0.00 0.00 43 1028.6
20260905133016 78 0.0 0.0 0.00 0.00 0.00 46 1028.6
20260905132016 77 0.0 0.0 0.00 0.00 0.00 45 1028.5
20260905131016 77 0.0 0.0 0.00 0.00 0.00 45 1028.5
20260905130016 77 0.0 0.0 0.00 0.00 0.00 47 1028.6
20260905125016 76 0.0 0.0 0.00 0.00 0.00 47 1028.5
20260905124016 76 0.0 0.0 0.00 0.00 0.00 49 1028.5
20260905123017 75 0.0 0.0 0.00 0.00 0.00 51 1028.4
20260905122036 76 0.0 0.0 0.00 0.00 0.00 48 1028.4
20260905121016 75 0.0 0.0 0.00 0.00 0.00 50 1028.4
20260905120016 75 0.0 0.0 0.00 0.00 0.00 51 1028.4
20260905115036 74 0.0 0.0 0.00 0.00 0.00 52 1028.3
20260905114016 73 0.0 0.0 0.00 0.00 0.00 55 1028.4
20260905113016 72 0.0 0.0 0.00 0.00 0.00 57 1028.5
20260905112037 72 0.0 0.0 0.00 0.00 0.00 52 1028.5
20260905111016 74 0.0 0.0 0.00 0.00 0.00 52 1028.5
20260905110036 73 0.0 0.0 0.00 0.00 0.00 55 1028.5
20260905105016 72 0.0 0.0 0.00 0.00 0.00 56 1028.5
20260905104037 71 0.0 0.0 0.00 0.00 0.00 57 1028.4
20260905103016 70 0.0 0.0 0.00 0.00 0.00 61 1028.4
20260905102037 70 0.0 0.0 0.00 0.00 0.00 59 1028.5
20260905101017 70 0.0 0.0 0.00 0.00 0.00 59 1028.4
20260905100016 69 0.0 0.0 0.00 0.00 0.00 65 1028.3
20260905095036 68 0.0 0.0 0.00 0.00 0.00 66 1028.2
20260905094016 67 0.0 0.0 0.00 0.00 0.00 68 1028.2
20260905093017 66 0.0 0.0 0.00 0.00 0.00 72 1028.2
20260905092037 64 0.0 0.0 0.00 0.00 0.00 77 1028.2
20260905091016 62 0.0 0.0 0.00 0.00 0.00 79 1028.1
20260905090016 61 0.0 0.0 0.00 0.00 0.00 85 1028.1
20260905085037 60 0.0 0.0 0.00 0.00 0.00 88 1028.0
20260905084016 59 0.0 0.0 0.00 0.00 0.00 92 1027.9
20260905083016 58 0.0 0.0 0.00 0.00 0.00 93 1028.0
20260905082016 57 0.0 0.0 0.00 0.02 0.00 94 1027.8
20260905081016 57 0.0 0.0 0.00 0.02 0.00 95 1027.7
20260905080016 56 0.0 0.0 0.00 0.02 0.00 95 1027.5
20260905075057 56 0.0 0.0 0.00 0.02 0.00 96 1027.6
20260905074017 55 0.0 0.0 0.00 0.02 0.00 96 1027.5
20260905073016 55 0.0 0.0 0.00 0.02 0.00 96 1027.5
20260905072016 54 0.0 0.0 0.00 0.02 0.00 96 1027.5
20260905071016 53 0.0 0.0 0.00 0.02 0.00 96 1027.5
20260905070017 53 0.0 0.0 0.00 0.02 0.00 97 1027.4
20260905065016 52 0.0 0.0 0.00 0.02 0.00 96 1027.1
20260905064037 51 0.0 0.0 0.00 0.02 0.00 96 1027.1
20260905063016 50 0.0 0.0 0.00 0.02 0.00 96 1027.0
20260905062056 49 0.0 0.0 0.00 0.02 0.00 95 1026.9
20260905061016 48 0.0 0.0 0.00 0.02 0.00 95 1026.8
20260905060016 48 0.0 0.0 0.00 0.02 0.00 95 1026.7
20260905055016 47 0.0 0.0 0.00 0.02 0.00 94 1026.6
20260905054016 47 0.0 0.0 0.00 0.02 0.00 93 1026.4
20260905053016 47 0.0 0.0 0.00 0.02 0.00 93 1026.4
20260905052016 47 0.0 0.0 0.00 0.02 0.00 93 1026.2
20260905051017 47 0.0 0.0 0.00 0.02 0.00 93 1026.1
20260905050016 48 0.0 0.0 0.00 0.02 0.00 93 1026.0
20260905045016 48 0.0 0.0 0.00 0.02 0.00 93 1025.9
20260905044016 48 0.0 0.0 0.00 0.02 0.00 93 1025.7
20260905043016 48 0.0 0.0 0.00 0.02 0.00 93 1025.6
20260905042016 48 0.0 0.0 0.00 0.02 0.00 93 1025.6
20260905041016 49 0.0 0.0 0.00 0.02 0.00 93 1025.6
20260905040017 49 0.0 0.0 0.00 0.02 0.00 93 1025.4
20260905035037 49 0.0 0.0 0.00 0.02 0.00 93 1025.4
20260905034037 49 0.0 0.0 0.00 0.02 0.00 93 1025.2
20260905033016 50 0.0 0.0 0.00 0.02 0.00 93 1025.2
20260905032016 50 0.0 0.0 0.00 0.02 0.00 93 1025.1
20260905031016 50 0.0 0.0 0.00 0.02 0.00 93 1025.1
20260905030016 50 0.0 0.0 0.00 0.02 0.00 93 1024.9
20260905025016 50 0.0 0.0 0.00 0.02 0.00 93 1025.0
20260905024017 51 0.0 0.0 0.00 0.02 0.00 93 1024.9
20260905023017 51 0.0 0.0 0.00 0.02 0.00 93 1024.8
20260905022057 51 0.0 0.0 0.00 0.02 0.00 92 1024.8
20260905021017 51 0.0 0.0 0.00 0.02 0.00 92 1024.8
20260905020017 51 0.0 0.0 0.00 0.02 0.00 92 1024.7
20260905015016 51 0.0 0.0 0.00 0.02 0.00 92 1024.6
20260905014056 51 0.0 0.0 0.00 0.02 0.00 91 1024.6
20260905013057 51 0.0 0.0 0.00 0.02 0.00 91 1024.6
20260905012016 52 0.0 0.0 0.00 0.02 0.00 91 1024.4
20260905011016 52 0.0 0.0 0.00 0.02 0.00 91 1024.4
20260905010016 52 0.0 0.0 0.00 0.02 0.00 91 1024.4
20260905005017 53 0.0 0.0 0.00 0.02 0.00 91 1024.4
20260905004036 53 0.0 0.0 0.00 0.02 0.00 91 1024.4
20260905003018 53 0.0 1.0 0.00 0.02 0.00 90 1024.3
20260905002017 54 0.0 1.0 0.00 0.02 0.00 90 1024.3
20260905001017 54 0.0 0.0 0.00 0.02 0.00 89 1024.2
20260905000016 54 0.0 1.0 0.00 0.02 0.00 89 1024.1
20260904235016 55 0.0 1.0 0.00 0.02 0.00 89 1024.1
20260904234017 55 0.0 1.0 0.00 0.02 0.00 90 1024.0
20260904233016 55 225 1.0 2.0 0.00 0.02 0.00 89 1023.9
20260904232017 55 0.0 2.0 0.00 0.02 0.00 89 1023.9
20260904231017 55 225 1.0 2.0 0.00 0.02 0.00 89 1023.8
20260904230016 55 0.0 2.0 0.00 0.02 0.02 89 1023.7
20260904225018 55 0.0 2.0 0.00 0.02 0.02 89 1023.6
20260904224036 55 225 1.0 3.0 0.00 0.02 0.02 88 1023.6
20260904223017 56 0.0 1.0 0.00 0.02 0.02 86 1023.6
20260904222016 56 0.0 0.0 0.00 0.02 0.02 85 1023.6
20260904221017 57 0.0 0.0 0.00 0.02 0.02 85 1023.6
20260904220017 57 248 1.0 2.0 0.00 0.02 0.02 85 1023.5
20260904215057 58 0.0 1.0 0.00 0.02 0.02 85 1023.5
20260904214018 58 0.0 1.0 0.00 0.02 0.02 84 1023.4
20260904213018 58 0.0 1.0 0.00 0.02 0.02 84 1023.3
20260904212036 59 248 1.0 2.0 0.00 0.02 0.02 83 1023.3
20260904211016 59 0.0 1.0 0.00 0.02 0.02 82 1023.3
20260904210017 59 248 1.0 2.0 0.00 0.02 0.02 81 1023.2
20260904205017 60 248 1.0 2.0 0.00 0.02 0.02 80 1023.1
20260904204019 60 0.0 1.0 0.00 0.02 0.02 79 1023.1
20260904203017 61 0.0 1.0 0.00 0.02 0.02 77 1023.1
20260904202017 61 0.0 2.0 0.00 0.02 0.02 76 1023.0